Content
SEND FEEDBACK

Daily
Averages
Monthly
Summary
Spain

BILBAO, SPAIN


Home > Europe > Spain
Elevation: 112 feet     Latitude: 43 18N     Longitude: 002 56W

WEATHER
 
SELECT A DAY
Number of Records: 226,662;   Date Range: 7/1/96 - 7/26/14
 
SHARE

PRINT THIS DATA

[ ← Previous Day ]
WEATHER ALMANAC - JULY 28, 2013
[ Next Day → ]
[ °C ]   °F
Weather ElementAverageHighLow
Temperature75 °F89.6 °F (4:00 pm)62.6 °F (7:00 am)
Dewpoint56 °F64.4 °F (8:30 pm)48.2 °F (12:00 pm)
Humidity57.2 %94 % (10:00 pm)26 % (4:00 pm)
Barometer29.92 in30.06 in (10:00 pm)29.86 in (5:30 am)
Wind Speed6.3 mph13.8 mph (12:30 pm)
Wind Gust20.7 mph (12:00 pm)
Weather ElementAverage
Visibility6.1 mi
Wind DirectionSSE (153 °)

Weather ElementTotal
Precipitation---
Cooling Degree Days11.1 (Base 65)
Growing Degree Days26.1 (Base 50)
Averaged from 37 records on July 28, 2013
WEATHER CONDITIONS BREAKOUT
WIND DIRECTION BREAKOUT
WEATHER BY HOUR - JULY 28, 2013
[ °C ]   °F
Local TimeTemperatureDewpointHumidityBarometerVisibilityWind DirectionWind SpeedGust SpeedPrecipitationEventsConditions
5:30 AM66.2 °F60.8 °F83 %29.86 in6.2 miESE (120°)4.6 mphPartly Cloudy
6:00 AM66.2 °F60.8 °F83 %29.86 in6.2 miVariable2.3 mphPartly Cloudy
6:30 AM64.4 °F59.0 °F83 %29.86 inVariable1.2 mphClear
7:00 AM62.6 °F59.0 °F88 %29.86 inVariable1.2 mphClear
7:30 AM62.6 °F59.0 °F88 %29.86 inSE (140°)4.6 mphClear
8:00 AM66.2 °F57.2 °F73 %29.86 inENE (70°)5.8 mphClear
8:30 AM69.8 °F59.0 °F68 %29.86 inVariable2.3 mphClear
9:00 AM71.6 °F57.2 °F60 %29.86 inESE (120°)3.5 mphClear
9:30 AM73.4 °F53.6 °F50 %29.86 inSSE (160°)3.5 mphClear
10:00 AM75.2 °F50.0 °F41 %29.89 inCalmClear
10:30 AM77.0 °F51.8 °F41 %29.89 inVariable3.5 mphClear
11:00 AM78.8 °F53.6 °F42 %29.89 inVariable3.5 mphClear
11:30 AM78.8 °F51.8 °F39 %29.89 inSW (230°)10.4 mphClear
12:00 PM80.6 °F48.2 °F32 %29.89 inWSW (240°)8.1 mph20.7 mphClear
12:30 PM82.4 °F48.2 °F30 %29.89 inWest (270°)13.8 mphClear
1:00 PM82.4 °F50.0 °F32 %29.89 inWest (260°)11.5 mphClear
1:30 PM84.2 °F50.0 °F30 %29.89 in6.2 miWSW (250°)10.4 mphPartly Cloudy
2:00 PM84.2 °F48.2 °F29 %29.89 in6.2 miWSW (250°)9.2 mphPartly Cloudy
2:30 PM84.2 °F50.0 °F30 %29.89 in6.2 miWest (260°)9.2 mphPartly Cloudy
3:00 PM84.2 °F48.2 °F29 %29.89 in6.2 miVariable2.3 mphPartly Cloudy
3:30 PM87.8 °F50.0 °F27 %29.89 in6.2 miWest (270°)10.4 mphPartly Cloudy
4:00 PM89.6 °F50.0 °F26 %29.89 in6.2 miWSW (250°)9.2 mphPartly Cloudy
4:30 PM87.8 °F50.0 °F27 %29.89 in6.2 miWest (280°)5.8 mphPartly Cloudy
5:00 PM86.0 °F53.6 °F33 %29.89 in6.2 miNNW (330°)9.2 mphScattered Clouds
5:30 PM84.2 °F57.2 °F40 %29.89 in6.2 miNE (40°)9.2 mphScattered Clouds
6:00 PM80.6 °F55.4 °F42 %29.92 in6.2 miNE (40°)10.4 mphScattered Clouds
6:30 PM80.6 °F55.4 °F42 %29.92 in6.2 miNorth (10°)6.9 mphScattered Clouds
7:00 PM75.2 °F60.8 °F61 %29.95 in6.2 miNW (320°)9.2 mphRainRain Showers
7:30 PM73.4 °F62.6 °F69 %29.98 in6.2 miVariable2.3 mphThunderstormThunderstorm
8:00 PM71.6 °F62.6 °F73 %30.01 in6.2 miNW (310°)8.1 mphRain-ThunderstormLight Thunderstorms and Rain
8:30 PM68.0 °F64.4 °F88 %30.01 in6.2 miNNW (340°)9.2 mphRain-ThunderstormLight Thunderstorms and Rain
9:00 PM68.0 °F62.6 °F83 %30.04 in6.2 miNW (320°)4.6 mphScattered Clouds
9:30 PM68.0 °F62.6 °F83 %30.04 in5.0 miNW (310°)6.9 mphRainLight Rain
10:00 PM64.4 °F62.6 °F94 %30.06 in6.2 miWest (280°)3.5 mphRainLight Rain
10:30 PM64.4 °F62.6 °F94 %30.04 in6.2 miESE (110°)9.2 mphScattered Clouds
11:00 PM64.4 °F62.6 °F94 %30.06 in6.2 miVariable1.2 mphPartly Cloudy
11:30 PM66.2 °F62.6 °F88 %30.06 in6.2 miEast (80°)5.8 mphPartly Cloudy
Hourly data recorded from LEBB, located miles away from Bilbao, Spain







STORIES FROM OUR PARTNERS